Flag for Switzerland Weather past 2 weeks in Carouge, Geneva, Switzerland

Now
66 °F

Mild.


Feels Like: 66 °F
Forecast: 40 / 71 °F
Wind: 3 mph from East

Location: Geneve-Cointrin

Current Time: Aug 20, 2014 at 5:34:08 PM

Latest Report: Aug 20, 2014 at 4:00 PM


Visibility: N/A

Pressure: 29.97 "Hg

Humidity: 51%

Dew point: 47 °F

Location of CarougeLocation

Historic Weather in Carouge — Graph

°F

Carouge temperature yesterday

Maximum temperature yesterday: 74 °F (at 4:00 PM)
Minimum temperature yesterday: 58 °F (at 11:00 PM)
Average temperature yesterday: 64 °F

Past Weeks' High & Low Weather Summary

 TemperatureHumidityPressure
High84 °F (Aug 10, 5:00 PM)94% (Aug 16, 3:00 AM)30.21 "Hg (Aug 16, 3:00 AM)
Low47 °F (Aug 17, 6:00 AM)36% (Aug 18, 4:00 PM)29.71 "Hg (Aug 13, 8:00 AM)
Average64 °F71%29.98 "Hg
* Reported Aug 5 4:00 PM — Aug 20 4:00 PM, Carouge, Weather by CustomWeather, © 2014

Note: Actual official high and low records may vary slightly from our data, if they occured in-between our weather recording intervals... More about our weather records

Advertising

Carouge weather history for previous 24 hours

 ConditionsComfort  
Time TempWeatherWind HumidityBarometerVisibility
4:00 PM
Aug 20
66 °FMild.3 mph51%29.97 "HgN/A
3:00 PM68 °FMild.5 mph43%29.97 "HgN/A
2:00 PM66 °FOvercast.3 mph48%29.98 "Hg22 mi
1:00 PM65 °FMild.5 mph43%29.98 "HgN/A
12:00 PM66 °FMild.3 mph52%29.99 "HgN/A
11:00 AM63 °FOvercast.1 mph59%30.00 "Hg22 mi
10:00 AM61 °FCool.1 mph65%30.01 "HgN/A
9:00 AM58 °FCool.2 mph79%30.01 "HgN/A
8:00 AM55 °FPartly sunny.2 mph86%30.02 "Hg25 mi
7:00 AM54 °FCool.1 mph87%30.02 "HgN/A
6:00 AM55 °FCool.1 mph84%30.02 "HgN/A
5:00 AM54 °FPassing clouds.3 mph89%30.02 "Hg22 mi
4:00 AM57 °FCool.No wind81%30.02 "HgN/A
3:00 AM57 °FCool.3 mph84%30.02 "HgN/A
2:00 AM57 °FPassing clouds.1 mph81%30.02 "Hg22 mi
1:00 AM57 °FCool.1 mph83%30.03 "HgN/A
12:00 AM57 °FCool.2 mph79%30.02 "HgN/A
11:00 PM
Aug 19
58 °FPassing clouds.1 mph73%30.01 "Hg31 mi
10:00 PM60 °FCool.2 mph68%29.99 "HgN/A
9:00 PM62 °FCool.3 mph64%29.96 "HgN/A
8:00 PM67 °FPassing clouds.2 mph49%29.93 "Hg31 mi
7:00 PM70 °FMild.5 mph46%29.91 "HgN/A
6:00 PM72 °FMild.10 mph39%29.90 "HgN/A
5:00 PM73 °FScattered clouds.9 mph41%29.90 "Hg31 mi
Weather by CustomWeather, © 2014

See weather overviewHow to use our weather pages